Hourly Data Report for October 23, 2015

All times are specified in Local Standard Time (LST). Add 1 hour to adjust for Daylight Saving Time where and when it is observed.

FREDERICTON
NEW BRUNSWICK

45°52'08.000" N
66°32'14.000" W
20.70 m
8101505
71700
YFC

Download Data

Hourly Data (October 2015)
Hourly Data Report for October 23, 2015
Temp Definition
°C
Dew Point Temp Definition
°C
Rel Hum Definition
%
Wind Dir Definition
10's deg

Wind Spd Definition
km/h
Visibility Definition
km
Stn Press Definition
kPa
Hmdx Definition


Wind Chill Definition


Weather Definition


TIME
00:00 Legend Double Dagger 12.4 10.1 86 24 13 16.1 100.81     LegendNANA
01:00 Legend Double Dagger 11.7 6.4 70 29 13 16.1 100.84     LegendNANA
02:00 Legend Double Dagger 10.2 4.4 67 27 17 16.1 100.90     LegendNANA
03:00 Legend Double Dagger 8.5 1.0 59 28 13 16.1 100.89     LegendNANA
04:00 Legend Double Dagger 6.7 -0.7 59 26 24 16.1 100.94     LegendNANA
05:00 Legend Double Dagger 5.6 0.2 68 28 21 16.1 101.04     LegendNANA
06:00 Legend Double Dagger 5.2 0.2 70 27 11 16.1 101.13     LegendNANA
07:00 Legend Double Dagger 3.9 0.0 76 28 13 16.1 101.18     LegendNANA
08:00 Legend Double Dagger 4.3 0.3 75 28 11 16.1 101.29     LegendNANA
09:00 Legend Double Dagger 5.5 -0.3 66 28 22 16.1 101.37     LegendNANA
10:00 Legend Double Dagger 5.5 -0.3 66 30 17 16.1 101.43     LegendNANA
11:00 Legend Double Dagger 6.8 -0.5 60 32 28 16.1 101.43     LegendNANA
12:00 Legend Double Dagger 8.3 -0.5 54 32 28 16.1 101.47     LegendNANA
13:00 Legend Double Dagger 7.8 0.3 59 30 15 16.1 101.55     LegendNANA
14:00 Legend Double Dagger 8.7 -0.3 53 32 26 16.1 101.57     LegendNANA
15:00 Legend Double Dagger 8.6 0.6 57 34 37 16.1 101.65     LegendNANA
16:00 Legend Double Dagger 7.7 0.9 62 33 24 16.1 101.81     LegendNANA
17:00 Legend Double Dagger 6.0 -0.2 64 32 24 16.1 101.95     LegendNANA
18:00 Legend Double Dagger 5.3 -0.3 67 32 22 16.1 102.05     LegendNANA
19:00 Legend Double Dagger 5.0 -0.8 66 35 21 16.1 102.15     LegendNANA
20:00 Legend Double Dagger 3.6 -1.4 70 33 15 16.1 102.21     LegendNANA
21:00 Legend Double Dagger 2.4 -1.5 75 33 9 16.1 102.28     LegendNANA
22:00 Legend Double Dagger 1.4 -1.6 80 33 11 16.1 102.38     LegendNANA
23:00 Legend Double Dagger 1.4 -1.7 80 33 18 16.1 102.41     LegendNANA

Notes on Data Quality.

Legend

  • E = Estimated
  • M = Missing
  • NA = Not Available
  • ‡ = Partner data that is not subject to review by the National Climate Archives
Date modified: